Weather History for KLFT - November, 2013

Change the Weather History Date:

Friday, November 1, 2013

  Actual Average Record
Temperature  
Mean Temperature 66 °F 66 °F  
Max Temperature 76 °F 77 °F 91 °F (1934)
Min Temperature 55 °F 55 °F 30 °F (1917)
Degree Days  
Heating Degree Days 0 3  
Month to date heating degree days 0 3  
Since 1 July heating degree days 11 39  
Cooling Degree Days 1 4  
Month to date cooling degree days 1 4  
Year to date cooling degree days 2814 2893  
Growing Degree Days 17 (Base 50)    
Moisture  
Dew Point 57 °F    
Average Humidity 68    
Maximum Humidity 97    
Minimum Humidity 38    
Precipitation  
Precipitation 0.00 in 0.15 in 2.86 in (1929)
Month to date precipitation 0.00 0.15  
Year to date precipitation 52.28 50.72  
Snow  
Snow 0.00 in 0.00 in 0.00 in ()
Month to date snowfall 0.0 0.0  
Since 1 July snowfall 0.0 0.0  
Since 1 September snowfall 0.0 0.0  
Snow Depth 0.00 in    
Sea Level Pressure  
Sea Level Pressure 29.90 in    
Wind  
Wind Speed 4 mph (NW)    
Max Wind Speed 13 mph    
Max Gust Speed 17 mph    
Visibility 9 miles    
Events Fog    
T = Trace of Precipitation, MM = Missing Value Source: NWS Daily Summary

Daily Weather History Graph

Daily Weather History Graph

Search for Another Location

Airport or City:

Trip Planner

Search our weather history database for the weather conditions in past years. The results will help you decide how hot, cold, wet, or windy it might be!

Date:

Astronomy

Nov. 01, 2013 Rise Set
Actual Time 7:22 AM CDT 6:20 PM CDT
Civil Twilight 6:57 AM CDT 6:45 PM CDT
Nautical Twilight 6:29 AM CDT 7:13 PM CDT
Astronomical Twilight 6:01 AM CDT 7:41 PM CDT
Moon 5:22 AM CDT (11/1) 5:07 PM CDT (11/1)
Length of Visible Light 11h 47m
Length of Day
10h 58m
Waning Crescent, 4% of the Moon is Illuminated
Nov 1
Waning Crescent
Nov 3
New
Nov 9
First Quarter
Nov 17
Full
Nov 25
Last Quarter

Hourly Weather History & Observations

Time (CDT) Temp. Dew Point Humidity Pressure Visibility Wind Dir Wind Speed Gust Speed Precip Events Conditions
12:22 AM 64.4 °F 62.6 °F 94% 29.89 in 0.5 mi WNW 5.8 mph - N/A Fog Fog
12:29 AM 64.4 °F 62.6 °F 94% 29.89 in 2.5 mi NW 5.8 mph - N/A   Overcast
12:36 AM 64.4 °F 62.6 °F 94% 29.89 in 7.0 mi WNW 5.8 mph - 0.01 in   Overcast
12:53 AM 64.0 °F 62.1 °F 93% 29.89 in 10.0 mi WNW 4.6 mph - 0.01 in   Overcast
1:11 AM 64.4 °F 62.6 °F 94% 29.89 in 10.0 mi Calm Calm - N/A   Overcast
1:33 AM - - N/A% 29.89 in 10.0 mi WNW 4.6 mph - N/A   Overcast
1:53 AM 64.0 °F 61.0 °F 90% 29.89 in 10.0 mi WNW 5.8 mph - N/A   Overcast
2:49 AM 62.6 °F 60.8 °F 94% 29.88 in 9.0 mi Calm Calm - N/A   Partly Cloudy
2:53 AM 63.0 °F 60.1 °F 90% 29.88 in 8.0 mi Calm Calm - N/A   Partly Cloudy
3:21 AM 62.6 °F 60.8 °F 94% 29.88 in 9.0 mi West 4.6 mph - N/A   Mostly Cloudy
3:53 AM 63.0 °F 61.0 °F 93% 29.88 in 7.0 mi WNW 6.9 mph - N/A   Overcast
4:24 AM 62.6 °F 60.8 °F 94% 29.88 in 10.0 mi WNW 6.9 mph - N/A   Overcast
4:40 AM 62.6 °F 60.8 °F 94% 29.88 in 10.0 mi NW 5.8 mph - N/A   Mostly Cloudy
4:53 AM 62.1 °F 60.1 °F 93% 29.89 in 10.0 mi WNW 4.6 mph - N/A   Mostly Cloudy
5:53 AM 63.0 °F 60.1 °F 90% 29.90 in 10.0 mi NW 4.6 mph - N/A   Overcast
6:26 AM 60.8 °F 59.0 °F 94% 29.89 in 10.0 mi NW 9.2 mph - N/A   Scattered Clouds
6:39 AM 60.8 °F 57.2 °F 88% 29.89 in 10.0 mi NW 5.8 mph - N/A   Mostly Cloudy
6:53 AM 61.0 °F 57.9 °F 90% 29.89 in 10.0 mi NNW 6.9 mph - N/A   Mostly Cloudy
7:38 AM 60.8 °F 57.2 °F 88% 29.89 in 7.0 mi Calm Calm - N/A   Scattered Clouds
7:53 AM 59.0 °F 57.0 °F 93% 29.90 in 4.0 mi Calm Calm - N/A   Scattered Clouds
8:03 AM 60.8 °F 57.2 °F 88% 29.90 in 6.0 mi Calm Calm - N/A   Mostly Cloudy
8:21 AM 60.8 °F 57.2 °F 88% 29.90 in 6.0 mi Calm Calm - N/A   Scattered Clouds
8:29 AM 60.8 °F 59.0 °F 94% 29.91 in 6.0 mi Calm Calm - N/A   Mostly Cloudy
8:53 AM 61.0 °F 59.0 °F 93% 29.92 in 4.0 mi ENE 3.5 mph - N/A   Overcast
9:19 AM 62.6 °F 57.2 °F 82% 29.93 in 9.0 mi Calm Calm - N/A   Mostly Cloudy
9:31 AM 62.6 °F 57.2 °F 82% 29.93 in 10.0 mi NNE 3.5 mph - N/A   Partly Cloudy
9:53 AM 64.0 °F 57.9 °F 80% 29.93 in 10.0 mi Calm Calm - N/A   Clear
10:53 AM 68.0 °F 57.0 °F 68% 29.94 in 10.0 mi NNW 5.8 mph - N/A   Clear
11:53 AM 71.1 °F 54.0 °F 55% 29.94 in 10.0 mi North 5.8 mph - N/A   Clear
12:53 PM 73.0 °F 51.1 °F 46% 29.91 in 10.0 mi Variable 4.6 mph - N/A   Clear
1:53 PM 73.9 °F 48.9 °F 41% 29.88 in 10.0 mi WSW 5.8 mph - N/A   Clear
2:53 PM 75.0 °F 48.9 °F 40% 29.86 in 10.0 mi WNW 6.9 mph - N/A   Clear
3:53 PM 75.0 °F 50.0 °F 41% 29.86 in 10.0 mi NW 8.1 mph - N/A   Clear
4:53 PM 75.9 °F 52.0 °F 43% 29.85 in 10.0 mi NNW 8.1 mph - N/A   Clear
5:53 PM 72.0 °F 53.1 °F 51% 29.86 in 10.0 mi North 5.8 mph - N/A   Clear
6:53 PM 66.9 °F 54.0 °F 63% 29.88 in 10.0 mi Calm Calm - N/A   Clear
7:53 PM 62.1 °F 57.9 °F 86% 29.91 in 10.0 mi Calm Calm - N/A   Clear
8:53 PM 61.0 °F 57.0 °F 87% 29.92 in 10.0 mi Calm Calm - N/A   Clear
9:53 PM 59.0 °F 55.0 °F 87% 29.94 in 10.0 mi Calm Calm - N/A   Clear
10:53 PM 59.0 °F 55.0 °F 87% 29.96 in 10.0 mi Calm Calm - N/A   Clear
11:53 PM 57.9 °F 54.0 °F 87% 29.96 in 10.0 mi Calm Calm - N/A   Clear